TimeEDT,TemperatureF,Dew PointF,Humidity,Sea Level PressureIn,VisibilityMPH,Wind Direction,Wind SpeedMPH,Gust SpeedMPH,PrecipitationIn,Events,Conditions,WindDirDegrees,DateUTC
12:01 AM,78.8,71.6,78,29.85,1.8,WSW,9.2,-,0.09,Rain,Heavy Rain,240,2013-08-29 04:01:00
12:12 AM,78.8,71.6,78,29.84,3.0,WSW,9.2,-,0.11,Rain,Light Rain,240,2013-08-29 04:12:00
12:21 AM,77.0,69.8,78,29.84,5.0,WSW,12.7,-,0.12,Rain,Light Rain,250,2013-08-29 04:21:00
12:54 AM,75.9,69.1,79,29.82,6.0,Calm,Calm,-,0.13,Rain,Light Rain,0,2013-08-29 04:54:00
1:09 AM,75.2,69.8,83,29.82,6.0,Calm,Calm,-,0.01,Rain,Light Rain,0,2013-08-29 05:09:00
1:27 AM,77.0,71.6,83,29.81,6.0,SW,4.6,-,0.01,,Haze,220,2013-08-29 05:27:00
1:37 AM,77.0,71.6,83,29.81,7.0,Calm,Calm,-,0.01,,Mostly Cloudy,0,2013-08-29 05:37:00
1:54 AM,77.0,70.0,79,29.80,7.0,Variable,3.5,-,0.01,,Mostly Cloudy,0,2013-08-29 05:54:00
1:57 AM,77.0,69.8,78,29.80,7.0,SE,5.8,-,N/A,,Mostly Cloudy,130,2013-08-29 05:57:00
2:27 AM,75.2,69.8,83,29.80,8.0,Calm,Calm,-,N/A,,Scattered Clouds,0,2013-08-29 06:27:00
2:54 AM,75.9,70.0,82,29.80,6.0,Calm,Calm,-,N/A,,Haze,0,2013-08-29 06:54:00
3:54 AM,75.9,70.0,82,29.80,4.0,NNE,4.6,-,N/A,,Haze,20,2013-08-29 07:54:00
4:28 AM,75.2,69.8,83,29.81,5.0,North,4.6,-,N/A,,Haze,10,2013-08-29 08:28:00
4:37 AM,75.2,69.8,83,29.81,5.0,North,4.6,-,N/A,,Haze,10,2013-08-29 08:37:00
4:52 AM,75.2,69.8,83,29.82,6.0,North,5.8,-,N/A,,Haze,360,2013-08-29 08:52:00
4:54 AM,75.9,70.0,82,29.82,6.0,North,4.6,-,N/A,,Haze,360,2013-08-29 08:54:00
5:07 AM,75.2,69.8,83,29.82,5.0,North,5.8,-,N/A,,Haze,10,2013-08-29 09:07:00
5:51 AM,75.2,69.8,83,29.83,6.0,North,4.6,-,N/A,,Haze,360,2013-08-29 09:51:00
5:54 AM,75.9,70.0,82,29.83,6.0,North,5.8,-,N/A,,Haze,360,2013-08-29 09:54:00
6:03 AM,75.2,71.6,89,29.83,6.0,North,4.6,-,N/A,,Haze,360,2013-08-29 10:03:00
6:11 AM,77.0,71.6,83,29.83,6.0,North,4.6,-,N/A,,Haze,360,2013-08-29 10:11:00
6:34 AM,75.2,71.6,89,29.84,6.0,North,4.6,-,N/A,,Haze,360,2013-08-29 10:34:00
6:54 AM,77.0,71.1,82,29.85,6.0,North,5.8,-,N/A,,Haze,10,2013-08-29 10:54:00
7:54 AM,77.0,71.1,82,29.87,4.0,NNE,6.9,-,N/A,,Haze,20,2013-08-29 11:54:00
8:01 AM,77.0,71.6,83,29.88,5.0,NNE,8.1,-,N/A,,Haze,20,2013-08-29 12:01:00
8:37 AM,78.8,71.6,78,29.89,9.0,NE,6.9,-,N/A,,Overcast,40,2013-08-29 12:37:00
8:54 AM,79.0,71.1,77,29.89,10.0,NE,8.1,-,N/A,,Mostly Cloudy,40,2013-08-29 12:54:00
9:11 AM,78.8,71.6,78,29.90,10.0,NE,9.2,-,N/A,,Overcast,50,2013-08-29 13:11:00
9:23 AM,78.8,71.6,78,29.90,9.0,NE,9.2,-,N/A,,Overcast,40,2013-08-29 13:23:00
9:54 AM,81.0,71.1,72,29.90,10.0,ENE,8.1,-,N/A,,Overcast,60,2013-08-29 13:54:00
10:15 AM,80.6,69.8,70,29.90,10.0,NE,9.2,-,N/A,,Mostly Cloudy,40,2013-08-29 14:15:00
10:54 AM,84.0,71.1,65,29.90,10.0,NNE,5.8,-,N/A,,Mostly Cloudy,30,2013-08-29 14:54:00
11:05 AM,82.4,69.8,66,29.90,10.0,Variable,6.9,-,N/A,,Mostly Cloudy,0,2013-08-29 15:05:00
11:54 AM,84.9,70.0,61,29.91,10.0,NE,8.1,-,N/A,,Mostly Cloudy,50,2013-08-29 15:54:00
12:34 PM,84.2,68.0,58,29.92,10.0,NNE,13.8,-,N/A,,Scattered Clouds,30,2013-08-29 16:34:00
12:54 PM,84.0,68.0,58,29.93,10.0,NNE,16.1,20.7,N/A,,Scattered Clouds,30,2013-08-29 16:54:00
1:20 PM,86.0,69.8,58,29.93,10.0,NNE,10.4,-,N/A,,Mostly Cloudy,30,2013-08-29 17:20:00
2:08 PM,82.4,66.2,58,29.95,10.0,NE,13.8,20.7,N/A,,Mostly Cloudy,50,2013-08-29 18:08:00
2:54 PM,84.9,68.0,57,29.95,10.0,East,13.8,20.7,N/A,,Partly Cloudy,80,2013-08-29 18:54:00
3:54 PM,84.0,68.0,58,29.95,10.0,East,12.7,20.7,N/A,,Clear,80,2013-08-29 19:54:00
4:33 PM,82.4,66.2,58,29.96,10.0,East,12.7,-,N/A,,Mostly Cloudy,80,2013-08-29 20:33:00
4:54 PM,82.0,68.0,62,29.96,10.0,East,13.8,-,N/A,,Overcast,80,2013-08-29 20:54:00
5:15 PM,80.6,66.2,61,29.96,10.0,East,11.5,18.4,N/A,,Overcast,90,2013-08-29 21:15:00
5:54 PM,80.1,66.9,64,29.97,10.0,East,12.7,-,N/A,,Mostly Cloudy,100,2013-08-29 21:54:00
6:54 PM,79.0,64.9,62,29.98,10.0,ENE,11.5,-,N/A,,Scattered Clouds,70,2013-08-29 22:54:00
7:06 PM,78.8,64.4,61,29.98,10.0,East,13.8,-,N/A,,Mostly Cloudy,80,2013-08-29 23:06:00
7:43 PM,75.2,62.6,65,29.99,10.0,ENE,10.4,-,N/A,,Scattered Clouds,60,2013-08-29 23:43:00
7:54 PM,75.9,64.0,67,29.99,10.0,ENE,9.2,-,N/A,,Clear,70,2013-08-29 23:54:00
8:54 PM,75.0,64.0,69,30.01,10.0,ENE,8.1,-,N/A,,Clear,70,2013-08-30 00:54:00
9:54 PM,73.9,63.0,68,30.01,10.0,ENE,6.9,-,N/A,,Clear,60,2013-08-30 01:54:00
10:54 PM,73.0,64.0,73,30.02,10.0,NE,5.8,-,N/A,,Partly Cloudy,50,2013-08-30 02:54:00
11:54 PM,73.0,64.9,76,30.02,10.0,ENE,5.8,-,N/A,,Partly Cloudy,60,2013-08-30 03:54:00